Retour au catalogue

HJS-9D

ActifScienceVLEO
NORAD 68834·PAYLOAD·🇨🇳 China

Lancé Apr 24, 2026 depuis Xichang Satellite Launch Center

Loading…

Prochains Passages (prochaines 24 heures)

TLE

FraisSource: Space-Track

Époque: Sep 14, 2026, 11:26 UTC

1 68834U 26091D   26257.47666423  .00006624  00000-0  32360-3 0  9992
2 68834  55.0031 351.4945 0012939 323.0570  36.9557 15.19377449 21772

Suivez HJS-9D en temps réel avec AllMySat

Download on the App Store